sat.trackr.live / text

‹ back to catalog

FREGAT DEB

NORAD 49271 · 2011-037PF

DEBRIS UNKNOWN UNKNOWN

§ Identity

Operator
Country
CIS
Launch date
2011-07-18
Launch site
TYMSC
Launch vehicle
Mass (kg)
RCS (m²)

Purposes: station

External: N2YO · Heavens-Above · Gunter

§ Orbital elements

Epoch: 2026-05-25T04:38:12.011712Z

Period
115.97 min
Inclination
51.6266°
Eccentricity
0.0920424
Mean motion
12.41680895 rev/d
Perigee alt
774.4 km
Apogee alt
2,224.6 km
Semi-major
7,877.6 km
B*
2.9625e-2
RAAN
70.9853°
Arg perigee
232.4706°
Mean anomaly
118.9015°
Rev number
22,219

§ Raw data

FREGAT DEB1 49271U 11037PF  26145.19319458  .00018424  00000+0  29625-1 0  99962 49271  51.6266  70.9853 0920424 232.4706 118.9015 12.41680895222193

JSON: /api/v1/satellites/49271 · /tle

For live sub-satellite position, see the globe view (requires WebGL).

§ Visibility from observer

Set your observer location to see the next 7 days of passes ≥ 10°. The values pass through the URL so the page stays shareable.

No JS? Fill the form by hand. The geolocation button needs JavaScript.